Location: *
(40.7873°S, 98.7174°E)
Time: 09:05:37
(UTC+00:00)

NOSS 3-4 (A) - Pass Details

Date: 24 May 2022
Orbit: 837 x 1375 km, 63.4° (Epoch: 28 June)

Event Time Altitude Azimuth Distance (km) Brightness Sun altitude
Rises 10:51:37 0° 218° (SW) 3,998 6.9 -8.0°
Reaches altitude 10° 10:54:31 10° 221° (SW) 2,950 6.3 -8.5°
Maximum altitude 11:01:15 59° 298° (WNW) 1,135 4.3 -9.7°
Drops below altitude 10° 11:07:08 10° 16° (NNE) 2,586 5.8 -10.7°
Sets 11:09:32 0° 19° (NNE) 3,471 6.4 -11.2°
